Location: Gaast
(52.9002°N, 5.8891°E)
Time: 07:28:50
(UTC+00:00)

Cosmos 371 Rocket - Pass Details

Date: 18 November 2025
Orbit: 674 x 690 km, 74.0° (Epoch: 11 December)

Event Time Altitude Azimuth Distance (km) Brightness Sun altitude
Rises 17:05:00 0° 163° (SSE) 3,034 6.6 -12.9°
Reaches altitude 10° 17:07:43 10° 148° (SSE) 2,127 5.6 -13.3°
Maximum altitude 17:11:21 22° 99° (E) 1,496 4.5 -13.8°
Enters shadow 17:12:04 21° 86° (E) 1,528 4.4 -13.9°
